This demonstration page uses our WeatherBlox Daily Observations layout. Learn more.

Left ArrowRight Arrow

Hourly Observations for March 1, 2016

Temp ( °F °C ) Dew Point ( °F °C ) Humidity (%) Winds ( mph kmh ) Pressure ( in mb ) Visibility ( mi km ) Precip ( " mm )
12:54 am 00:54 Cloudy 29 -1.7 18 -7.8 63 63 N 22 35 30.06 1018 10 16 0.00 0.00
1:54 am 01:54 Cloudy 27 -2.8 18 -7.8 69 69 N 15 24 30.06 1018 10 16 0.00 0.00
2:54 am 02:54 Partly Cloudy 26 -3.3 18 -7.8 71 71 NNW 15 24 30.06 1018 10 16 0.00 0.00
3:54 am 03:54 Clear 25 -3.9 18 -7.8 75 75 NNW 16 26 30.10 1019 10 16 0.00 0.00
4:30 am 04:30 Mostly Cloudy 25 -4 18 -8 74 74 N 16 26 30.15 1021 10 16 0.00 0.00
4:47 am 04:47 Cloudy 24 -4.4 17 -8.3 75 75 N 17 28 30.18 1022 10 16 0.00 0.00
4:54 am 04:54 Cloudy 24 -4.4 18 -7.8 77 77 N 14 22 30.11 1020 10 16 0.00 0.00
5:21 am 05:21 Cloudy 24 -4.4 17 -8.3 75 75 N 17 28 30.18 1022 10 16 0.00 0.00
5:54 am 05:54 Cloudy 25 -3.9 18 -7.8 75 75 N 18 30 30.14 1021 10 16 0.00 0.00
6:54 am 06:54 Cloudy 23 -5 17 -8.3 78 78 N 16 26 30.16 1022 10 16 0.00 0.00
7:25 am 07:25 Cloudy 22 -5.6 16 -8.9 78 78 N 14 22 30.24 1024 10 16 0.00 0.00
7:37 am 07:37 Cloudy 23 -5 16 -8.9 74 74 N 13 20 30.24 1024 10 16 0.00 0.00
7:54 am 07:54 Cloudy 24 -4.4 17 -8.3 75 75 N 13 20 30.19 1023 10 16 0.00 0.00
8:22 am 08:22 Cloudy 25 -4 16 -9 69 69 N 22 35 30.27 1025 10 16 0.00 0.00
8:54 am 08:54 Cloudy 25 -3.9 16 -8.9 69 69 NNW 21 33 30.23 1024 10 16 0.00 0.00
9:30 am 09:30 Cloudy 27 -3 16 -9 64 64 N 20 31 30.30 1026 10 16 0.00 0.00
9:54 am 09:54 Cloudy 26 -3.3 15 -9.4 63 63 N 21 33 30.25 1024 10 16 0.00 0.00
10:38 am 10:38 Cloudy 27 -3 16 -9 64 64 N 16 26 30.30 1026 10 16 0.00 0.00
10:54 am 10:54 Cloudy 28 -2.2 15 -9.4 58 58 N 16 26 30.26 1025 10 16 0.00 0.00
11:54 am 11:54 Cloudy 29 -1.7 16 -8.9 58 58 NW 15 24 30.28 1025 10 16 0.00 0.00
12:54 pm 12:54 Cloudy 30 -1.1 17 -8.3 58 58 NW 13 20 30.26 1025 10 16 0.00 0.00
1:54 pm 13:54 Mostly Cloudy 32 0 17 -8.3 54 54 NNW 16 26 30.24 1024 10 16 0.00 0.00
2:33 pm 14:33 Partly Cloudy 32 0 17 -8.3 54 54 NNW 14 22 30.24 1024 10 16 0.00 0.00
2:54 pm 14:54 Mostly Sunny 33 0.6 17 -8.3 52 52 NNW 17 28 30.23 1024 10 16 0.00 0.00
3:54 pm 15:54 Sunny 33 0.6 17 -8.3 52 52 undefined N/A 30.22 1023 10 16 0.00 0.00
4:54 pm 16:54 Sunny 34 1.1 17 -8.3 50 50 NW 10 17 30.22 1023 10 16 0.00 0.00
5:54 pm 17:54 Sunny 31 -0.6 17 -8.3 56 56 N 7 11 30.23 1024 10 16 0.00 0.00
6:54 pm 18:54 Clear 26 -3.3 16 -8.9 66 66 ENE 6 9 30.22 1024 10 16 0.00 0.00
7:54 pm 19:54 Clear 25 -3.9 16 -8.9 69 69 ENE 6 9 30.23 1024 10 16 0.00 0.00
8:54 pm 20:54 Clear 25 -3.9 15 -9.4 66 66 Calm 30.22 1024 10 16 0.00 0.00
9:54 pm 21:54 Clear 25 -3.9 16 -8.9 69 69 Calm 30.22 1023 10 16 0.00 0.00
10:54 pm 22:54 Clear 23 -5 16 -8.9 74 74 S 5 7 30.22 1023 10 16 0.00 0.00
11:54 pm 23:54 Clear 24 -4.4 16 -8.9 71 71 Calm 30.19 1023 10 16 0.00 0.00

Powered by AerisWeather